owner,sensor,date,latitude,longitude,vertical_datum,mass_concentration_of_oxygen_in_sea_water,qcFlag 
DISL,ioos:station:DISL:MHPA:1,2015-06-01T00:00:00Z,30.6671,-87.9365,1.091,8.02,1111122 
DISL,ioos:station:DISL:MHPA:1,2015-06-01T00:30:00Z,30.6671,-87.9365,1.067,7.6,1111122 
DISL,ioos:station:DISL:MHPA:1,2015-06-01T01:00:00Z,30.6671,-87.9365,1.05,7.82,1111122 
DISL,ioos:station:DISL:MHPA:1,2015-06-01T01:30:00Z,30.6671,-87.9365,1.033,7.11,1111122 
DISL,ioos:station:DISL:MHPA:1,2015-06-01T02:00:00Z,30.6671,-87.9365,1.007,7.12,1111122 
DISL,ioos:station:DISL:MHPA:1,2015-06-01T02:30:00Z,30.6671,-87.9365,0.994,6.96,1111122 
DISL,ioos:station:DISL:MHPA:1,2015-06-01T03:00:00Z,30.6671,-87.9365,0.971,6.79,1111122 
DISL,ioos:station:DISL:MHPA:1,2015-06-01T03:30:00Z,30.6671,-87.9365,0.957,6.86,1111122 
DISL,ioos:station:DISL:MHPA:1,2015-06-01T04:00:00Z,30.6671,-87.9365,0.94,6.54,1111122 
DISL,ioos:station:DISL:MHPA:1,2015-06-01T04:30:00Z,30.6671,-87.9365,0.931,6.51,1111122 
DISL,ioos:station:DISL:MHPA:1,2015-06-01T05:00:00Z,30.6671,-87.9365,0.935,6.96,1111122 
DISL,ioos:station:DISL:MHPA:1,2015-06-01T05:30:00Z,30.6671,-87.9365,0.943,6.67,1111122 
DISL,ioos:station:DISL:MHPA:1,2015-06-01T06:00:00Z,30.6671,-87.9365,0.962,6.77,1111122 
DISL,ioos:station:DISL:MHPA:1,2015-06-01T06:30:00Z,30.6671,-87.9365,0.985,6.4,1111122 
DISL,ioos:station:DISL:MHPA:1,2015-06-01T07:00:00Z,30.6671,-87.9365,1.014,6.84,1111122 
DISL,ioos:station:DISL:MHPA:1,2015-06-01T07:30:00Z,30.6671,-87.9365,1.058,6.33,1111122 
DISL,ioos:station:DISL:MHPA:1,2015-06-01T08:00:00Z,30.6671,-87.9365,1.097,6.37,1111122 
DISL,ioos:station:DISL:MHPA:1,2015-06-01T08:30:00Z,30.6671,-87.9365,1.113,6.32,1111122 
DISL,ioos:station:DISL:MHPA:1,2015-06-01T09:00:00Z,30.6671,-87.9365,1.136,6.17,1111122 
DISL,ioos:station:DISL:MHPA:1,2015-06-01T09:30:00Z,30.6671,-87.9365,1.162,5.63,1111122 
DISL,ioos:station:DISL:MHPA:1,2015-06-01T10:00:00Z,30.6671,-87.9365,1.172,5.49,1111122 
DISL,ioos:station:DISL:MHPA:1,2015-06-01T10:30:00Z,30.6671,-87.9365,1.193,5.68,1111122 
DISL,ioos:station:DISL:MHPA:1,2015-06-01T11:00:00Z,30.6671,-87.9365,1.221,5.44,1111122 
DISL,ioos:station:DISL:MHPA:1,2015-06-01T11:30:00Z,30.6671,-87.9365,1.253,5.47,1111122 
DISL,ioos:station:DISL:MHPA:1,2015-06-01T12:00:00Z,30.6671,-87.9365,1.302,5.02,1111122 
DISL,ioos:station:DISL:MHPA:1,2015-06-01T12:30:00Z,30.6671,-87.9365,1.347,6.0,1111122 
DISL,ioos:station:DISL:MHPA:1,2015-06-01T13:00:00Z,30.6671,-87.9365,1.383,5.59,1111122 
DISL,ioos:station:DISL:MHPA:1,2015-06-01T13:30:00Z,30.6671,-87.9365,1.439,5.3,1111122 
DISL,ioos:station:DISL:MHPA:1,2015-06-01T14:00:00Z,30.6671,-87.9365,1.456,5.79,1111122 
DISL,ioos:station:DISL:MHPA:1,2015-06-01T14:30:00Z,30.6671,-87.9365,1.473,4.76,1111122 
DISL,ioos:station:DISL:MHPA:1,2015-06-01T15:00:00Z,30.6671,-87.9365,1.497,4.19,1111122 
DISL,ioos:station:DISL:MHPA:1,2015-06-01T15:30:00Z,30.6671,-87.9365,1.496,4.49,1111122 
DISL,ioos:station:DISL:MHPA:1,2015-06-01T16:00:00Z,30.6671,-87.9365,1.493,4.99,1111122 
DISL,ioos:station:DISL:MHPA:1,2015-06-01T16:30:00Z,30.6671,-87.9365,1.499,5.11,1111122 
DISL,ioos:station:DISL:MHPA:1,2015-06-01T17:00:00Z,30.6671,-87.9365,1.494,4.03,1111122 
DISL,ioos:station:DISL:MHPA:1,2015-06-01T17:30:00Z,30.6671,-87.9365,1.455,5.78,1111122 
DISL,ioos:station:DISL:MHPA:1,2015-06-01T18:00:00Z,30.6671,-87.9365,1.44,5.19,1111122 
DISL,ioos:station:DISL:MHPA:1,2015-06-01T18:30:00Z,30.6671,-87.9365,1.417,5.11,1111122 
DISL,ioos:station:DISL:MHPA:1,2015-06-01T19:00:00Z,30.6671,-87.9365,1.383,5.14,1111122 
DISL,ioos:station:DISL:MHPA:1,2015-06-01T19:30:00Z,30.6671,-87.9365,1.348,5.53,1111122 
DISL,ioos:station:DISL:MHPA:1,2015-06-01T20:00:00Z,30.6671,-87.9365,1.309,5.64,1111122 
DISL,ioos:station:DISL:MHPA:1,2015-06-01T20:30:00Z,30.6671,-87.9365,1.295,5.11,1111122 
DISL,ioos:station:DISL:MHPA:1,2015-06-01T21:00:00Z,30.6671,-87.9365,1.229,7.16,1111122 
DISL,ioos:station:DISL:MHPA:1,2015-06-01T21:30:00Z,30.6671,-87.9365,1.197,6.44,1111122 
DISL,ioos:station:DISL:MHPA:1,2015-06-01T22:00:00Z,30.6671,-87.9365,1.16,5.07,1111122 
DISL,ioos:station:DISL:MHPA:1,2015-06-01T22:30:00Z,30.6671,-87.9365,1.125,4.5,1111122 
DISL,ioos:station:DISL:MHPA:1,2015-06-01T23:00:00Z,30.6671,-87.9365,1.081,5.42,1111122 
DISL,ioos:station:DISL:MHPA:1,2015-06-01T23:30:00Z,30.6671,-87.9365,1.045,5.79,1111122 
DISL,ioos:station:DISL:MHPA:1,2015-06-02T00:00:00Z,30.6671,-87.9365,1.014,5.91,1111122 
DISL,ioos:station:DISL:MHPA:1,2015-06-02T00:30:00Z,30.6671,-87.9365,0.997,5.78,1111122 
DISL,ioos:station:DISL:MHPA:1,2015-06-02T01:00:00Z,30.6671,-87.9365,0.97,5.89,1111122 
DISL,ioos:station:DISL:MHPA:1,2015-06-02T01:30:00Z,30.6671,-87.9365,0.948,5.88,1111122 
DISL,ioos:station:DISL:MHPA:1,2015-06-02T02:00:00Z,30.6671,-87.9365,0.935,5.53,1111122 
DISL,ioos:station:DISL:MHPA:1,2015-06-02T02:30:00Z,30.6671,-87.9365,0.917,4.99,1111122 
DISL,ioos:station:DISL:MHPA:1,2015-06-02T03:00:00Z,30.6671,-87.9365,0.904,5.13,1111122 
DISL,ioos:station:DISL:MHPA:1,2015-06-02T03:30:00Z,30.6671,-87.9365,0.9,5.43,1111122 
DISL,ioos:station:DISL:MHPA:1,2015-06-02T04:00:00Z,30.6671,-87.9365,0.888,5.52,1111122 
DISL,ioos:station:DISL:MHPA:1,2015-06-02T04:30:00Z,30.6671,-87.9365,0.881,5.76,1111122 
DISL,ioos:station:DISL:MHPA:1,2015-06-02T05:00:00Z,30.6671,-87.9365,0.903,5.6,1111122 
DISL,ioos:station:DISL:MHPA:1,2015-06-02T05:30:00Z,30.6671,-87.9365,0.934,5.49,1111122 
DISL,ioos:station:DISL:MHPA:1,2015-06-02T06:00:00Z,30.6671,-87.9365,0.964,5.32,1111122 
DISL,ioos:station:DISL:MHPA:1,2015-06-02T06:30:00Z,30.6671,-87.9365,1.003,4.98,1111122 
DISL,ioos:station:DISL:MHPA:1,2015-06-02T07:00:00Z,30.6671,-87.9365,1.046,5.07,1111122 
DISL,ioos:station:DISL:MHPA:1,2015-06-02T07:30:00Z,30.6671,-87.9365,1.092,5.44,1111122 
DISL,ioos:station:DISL:MHPA:1,2015-06-02T08:00:00Z,30.6671,-87.9365,1.147,5.88,1111122 
DISL,ioos:station:DISL:MHPA:1,2015-06-02T08:30:00Z,30.6671,-87.9365,1.163,5.73,1111122 
DISL,ioos:station:DISL:MHPA:1,2015-06-02T09:00:00Z,30.6671,-87.9365,1.185,5.9,1111122 
DISL,ioos:station:DISL:MHPA:1,2015-06-02T09:30:00Z,30.6671,-87.9365,1.209,5.71,1111122 
DISL,ioos:station:DISL:MHPA:1,2015-06-02T10:00:00Z,30.6671,-87.9365,1.237,5.48,1111122 
DISL,ioos:station:DISL:MHPA:1,2015-06-02T10:30:00Z,30.6671,-87.9365,1.27,5.0,1111122 
DISL,ioos:station:DISL:MHPA:1,2015-06-02T11:00:00Z,30.6671,-87.9365,1.279,4.17,1111122 
DISL,ioos:station:DISL:MHPA:1,2015-06-02T11:30:00Z,30.6671,-87.9365,1.332,5.51,1111122 
DISL,ioos:station:DISL:MHPA:1,2015-06-02T12:00:00Z,30.6671,-87.9365,1.393,5.57,1111122 
DISL,ioos:station:DISL:MHPA:1,2015-06-02T12:30:00Z,30.6671,-87.9365,1.309,5.58,1111122 
DISL,ioos:station:DISL:MHPA:1,2015-06-02T13:00:00Z,30.6671,-87.9365,1.324,5.39,1111122 
DISL,ioos:station:DISL:MHPA:1,2015-06-02T13:30:00Z,30.6671,-87.9365,1.36,5.15,1111122 
DISL,ioos:station:DISL:MHPA:1,2015-06-02T14:00:00Z,30.6671,-87.9365,1.373,5.29,1111122 
DISL,ioos:station:DISL:MHPA:1,2015-06-02T14:30:00Z,30.6671,-87.9365,1.411,5.25,1111122 
DISL,ioos:station:DISL:MHPA:1,2015-06-02T15:00:00Z,30.6671,-87.9365,1.423,5.18,1111122 
DISL,ioos:station:DISL:MHPA:1,2015-06-02T15:30:00Z,30.6671,-87.9365,1.412,4.61,1111122 
DISL,ioos:station:DISL:MHPA:1,2015-06-02T16:00:00Z,30.6671,-87.9365,1.444,5.29,1111122 
DISL,ioos:station:DISL:MHPA:1,2015-06-02T16:30:00Z,30.6671,-87.9365,1.467,6.15,1111122 
DISL,ioos:station:DISL:MHPA:1,2015-06-02T17:00:00Z,30.6671,-87.9365,1.457,5.58,1111122 
DISL,ioos:station:DISL:MHPA:1,2015-06-02T17:30:00Z,30.6671,-87.9365,1.445,5.78,1111122 
DISL,ioos:station:DISL:MHPA:1,2015-06-02T18:00:00Z,30.6671,-87.9365,1.441,5.97,1111122 
DISL,ioos:station:DISL:MHPA:1,2015-06-02T18:30:00Z,30.6671,-87.9365,1.434,6.34,1111122 
DISL,ioos:station:DISL:MHPA:1,2015-06-02T19:00:00Z,30.6671,-87.9365,1.402,6.18,1111122 
DISL,ioos:station:DISL:MHPA:1,2015-06-02T19:30:00Z,30.6671,-87.9365,1.383,6.22,1111122 
DISL,ioos:station:DISL:MHPA:1,2015-06-02T20:00:00Z,30.6671,-87.9365,1.357,6.61,1111122 
DISL,ioos:station:DISL:MHPA:1,2015-06-02T20:30:00Z,30.6671,-87.9365,1.325,7.13,1111122 
DISL,ioos:station:DISL:MHPA:1,2015-06-02T21:00:00Z,30.6671,-87.9365,1.285,5.26,1111122 
DISL,ioos:station:DISL:MHPA:1,2015-06-02T21:30:00Z,30.6671,-87.9365,1.246,4.99,1111122 
DISL,ioos:station:DISL:MHPA:1,2015-06-02T22:00:00Z,30.6671,-87.9365,1.212,4.9,1111122 
DISL,ioos:station:DISL:MHPA:1,2015-06-02T22:30:00Z,30.6671,-87.9365,1.175,5.05,1111122 
DISL,ioos:station:DISL:MHPA:1,2015-06-02T23:00:00Z,30.6671,-87.9365,1.144,5.48,1111122 
DISL,ioos:station:DISL:MHPA:1,2015-06-02T23:30:00Z,30.6671,-87.9365,1.119,5.99,1111122 
DISL,ioos:station:DISL:MHPA:1,2015-06-03T00:00:00Z,30.6671,-87.9365,1.101,7.78,1111122 
DISL,ioos:station:DISL:MHPA:1,2015-06-03T00:30:00Z,30.6671,-87.9365,1.085,7.08,1111122 
DISL,ioos:station:DISL:MHPA:1,2015-06-03T01:00:00Z,30.6671,-87.9365,1.058,7.81,1111122 
DISL,ioos:station:DISL:MHPA:1,2015-06-03T01:30:00Z,30.6671,-87.9365,1.023,7.42,1111122 
DISL,ioos:station:DISL:MHPA:1,2015-06-03T02:00:00Z,30.6671,-87.9365,0.991,6.9,1111122 
DISL,ioos:station:DISL:MHPA:1,2015-06-03T02:30:00Z,30.6671,-87.9365,0.96,6.98,1111122 
DISL,ioos:station:DISL:MHPA:1,2015-06-03T03:00:00Z,30.6671,-87.9365,0.934,5.71,1111122 
DISL,ioos:station:DISL:MHPA:1,2015-06-03T03:30:00Z,30.6671,-87.9365,0.915,6.36,1111122 
DISL,ioos:station:DISL:MHPA:1,2015-06-03T04:00:00Z,30.6671,-87.9365,0.899,6.85,1111122 
DISL,ioos:station:DISL:MHPA:1,2015-06-03T04:30:00Z,30.6671,-87.9365,0.895,6.62,1111122 
DISL,ioos:station:DISL:MHPA:1,2015-06-03T05:00:00Z,30.6671,-87.9365,0.897,6.35,1111122 
DISL,ioos:station:DISL:MHPA:1,2015-06-03T05:30:00Z,30.6671,-87.9365,0.91,6.7,1111122 
DISL,ioos:station:DISL:MHPA:1,2015-06-03T06:00:00Z,30.6671,-87.9365,0.938,6.58,1111122 
DISL,ioos:station:DISL:MHPA:1,2015-06-03T06:30:00Z,30.6671,-87.9365,0.967,6.33,1111122 
DISL,ioos:station:DISL:MHPA:1,2015-06-03T07:00:00Z,30.6671,-87.9365,0.989,6.25,1111122 
DISL,ioos:station:DISL:MHPA:1,2015-06-03T07:30:00Z,30.6671,-87.9365,1.016,5.84,1111122 
DISL,ioos:station:DISL:MHPA:1,2015-06-03T08:00:00Z,30.6671,-87.9365,1.026,5.72,1111122 
DISL,ioos:station:DISL:MHPA:1,2015-06-03T08:30:00Z,30.6671,-87.9365,1.047,5.78,1111122 
DISL,ioos:station:DISL:MHPA:1,2015-06-03T09:00:00Z,30.6671,-87.9365,1.068,5.42,1111122 
DISL,ioos:station:DISL:MHPA:1,2015-06-03T09:30:00Z,30.6671,-87.9365,1.096,5.11,1111122 
DISL,ioos:station:DISL:MHPA:1,2015-06-03T10:00:00Z,30.6671,-87.9365,1.132,6.06,1111122 
DISL,ioos:station:DISL:MHPA:1,2015-06-03T10:30:00Z,30.6671,-87.9365,1.138,5.64,1111122 
DISL,ioos:station:DISL:MHPA:1,2015-06-03T11:00:00Z,30.6671,-87.9365,1.162,4.86,1111122 
DISL,ioos:station:DISL:MHPA:1,2015-06-03T11:30:00Z,30.6671,-87.9365,1.192,4.75,1111122 
DISL,ioos:station:DISL:MHPA:1,2015-06-03T12:00:00Z,30.6671,-87.9365,1.208,5.2,1111122 
DISL,ioos:station:DISL:MHPA:1,2015-06-03T12:30:00Z,30.6671,-87.9365,1.238,5.37,1111122 
DISL,ioos:station:DISL:MHPA:1,2015-06-03T13:00:00Z,30.6671,-87.9365,1.259,5.12,1111122 
DISL,ioos:station:DISL:MHPA:1,2015-06-03T13:30:00Z,30.6671,-87.9365,1.29,5.04,1111122 
DISL,ioos:station:DISL:MHPA:1,2015-06-03T14:00:00Z,30.6671,-87.9365,1.326,5.84,1111122 
DISL,ioos:station:DISL:MHPA:1,2015-06-03T14:30:00Z,30.6671,-87.9365,1.381,5.98,1111122 
DISL,ioos:station:DISL:MHPA:1,2015-06-03T15:00:00Z,30.6671,-87.9365,1.405,5.67,1111122 
DISL,ioos:station:DISL:MHPA:1,2015-06-03T15:30:00Z,30.6671,-87.9365,1.439,5.47,1111122 
DISL,ioos:station:DISL:MHPA:1,2015-06-03T16:00:00Z,30.6671,-87.9365,1.468,5.37,1111122 
DISL,ioos:station:DISL:MHPA:1,2015-06-03T16:30:00Z,30.6671,-87.9365,1.492,5.91,1111122 
DISL,ioos:station:DISL:MHPA:1,2015-06-03T17:00:00Z,30.6671,-87.9365,1.519,6.35,1111122 
DISL,ioos:station:DISL:MHPA:1,2015-06-03T17:30:00Z,30.6671,-87.9365,1.531,6.19,1111122 
DISL,ioos:station:DISL:MHPA:1,2015-06-03T18:00:00Z,30.6671,-87.9365,1.528,6.4,1111122 
DISL,ioos:station:DISL:MHPA:1,2015-06-03T18:30:00Z,30.6671,-87.9365,1.528,5.94,1111122 
DISL,ioos:station:DISL:MHPA:1,2015-06-03T19:00:00Z,30.6671,-87.9365,1.515,5.98,1111122 
DISL,ioos:station:DISL:MHPA:1,2015-06-03T19:30:00Z,30.6671,-87.9365,1.493,5.91,1111122 
DISL,ioos:station:DISL:MHPA:1,2015-06-03T20:00:00Z,30.6671,-87.9365,1.469,6.13,1111122 
DISL,ioos:station:DISL:MHPA:1,2015-06-03T20:30:00Z,30.6671,-87.9365,1.432,6.56,1111122 
DISL,ioos:station:DISL:MHPA:1,2015-06-03T21:00:00Z,30.6671,-87.9365,1.395,6.3,1111122 
DISL,ioos:station:DISL:MHPA:1,2015-06-03T21:30:00Z,30.6671,-87.9365,1.356,5.96,1111122 
DISL,ioos:station:DISL:MHPA:1,2015-06-03T22:00:00Z,30.6671,-87.9365,1.319,6.37,1111122 
DISL,ioos:station:DISL:MHPA:1,2015-06-03T22:30:00Z,30.6671,-87.9365,1.29,9.52,1111122 
DISL,ioos:station:DISL:MHPA:1,2015-06-03T23:00:00Z,30.6671,-87.9365,1.262,8.79,1111122 
DISL,ioos:station:DISL:MHPA:1,2015-06-03T23:30:00Z,30.6671,-87.9365,1.223,9.75,1111122 
DISL,ioos:station:DISL:MHPA:1,2015-06-04T00:00:00Z,30.6671,-87.9365,1.18,8.32,1111122 
DISL,ioos:station:DISL:MHPA:1,2015-06-04T00:30:00Z,30.6671,-87.9365,1.142,6.89,1111122 
DISL,ioos:station:DISL:MHPA:1,2015-06-04T01:00:00Z,30.6671,-87.9365,1.105,6.51,1111122 
DISL,ioos:station:DISL:MHPA:1,2015-06-04T01:30:00Z,30.6671,-87.9365,1.075,5.12,1111122 
DISL,ioos:station:DISL:MHPA:1,2015-06-04T02:00:00Z,30.6671,-87.9365,1.027,5.84,1111122 
DISL,ioos:station:DISL:MHPA:1,2015-06-04T02:30:00Z,30.6671,-87.9365,0.995,7.56,1111122 
DISL,ioos:station:DISL:MHPA:1,2015-06-04T03:00:00Z,30.6671,-87.9365,0.965,7.97,1111122 
DISL,ioos:station:DISL:MHPA:1,2015-06-04T03:30:00Z,30.6671,-87.9365,0.938,7.41,1111122 
DISL,ioos:station:DISL:MHPA:1,2015-06-04T04:00:00Z,30.6671,-87.9365,0.918,7.71,1111122 
DISL,ioos:station:DISL:MHPA:1,2015-06-04T04:30:00Z,30.6671,-87.9365,0.903,7.16,1111122 
DISL,ioos:station:DISL:MHPA:1,2015-06-04T05:00:00Z,30.6671,-87.9365,0.89,7.53,1111122 
DISL,ioos:station:DISL:MHPA:1,2015-06-04T05:30:00Z,30.6671,-87.9365,0.87,7.49,1111122 
DISL,ioos:station:DISL:MHPA:1,2015-06-04T06:00:00Z,30.6671,-87.9365,0.845,7.23,1111122 
DISL,ioos:station:DISL:MHPA:1,2015-06-04T06:30:00Z,30.6671,-87.9365,0.852,7.13,1111122 
DISL,ioos:station:DISL:MHPA:1,2015-06-04T07:00:00Z,30.6671,-87.9365,0.868,6.98,1111122 
DISL,ioos:station:DISL:MHPA:1,2015-06-04T07:30:00Z,30.6671,-87.9365,0.896,6.66,1111122 
DISL,ioos:station:DISL:MHPA:1,2015-06-04T08:00:00Z,30.6671,-87.9365,0.931,6.45,1111122 
DISL,ioos:station:DISL:MHPA:1,2015-06-04T08:30:00Z,30.6671,-87.9365,0.979,6.41,1111122 
DISL,ioos:station:DISL:MHPA:1,2015-06-04T09:00:00Z,30.6671,-87.9365,1.018,6.09,1111122 
DISL,ioos:station:DISL:MHPA:1,2015-06-04T09:30:00Z,30.6671,-87.9365,1.059,5.72,1111122 
DISL,ioos:station:DISL:MHPA:1,2015-06-04T10:00:00Z,30.6671,-87.9365,1.095,5.82,1111122 
DISL,ioos:station:DISL:MHPA:1,2015-06-04T10:30:00Z,30.6671,-87.9365,1.135,5.53,1111122 
DISL,ioos:station:DISL:MHPA:1,2015-06-04T11:00:00Z,30.6671,-87.9365,1.173,5.42,1111122 
DISL,ioos:station:DISL:MHPA:1,2015-06-04T11:30:00Z,30.6671,-87.9365,1.206,5.31,1111122 
DISL,ioos:station:DISL:MHPA:1,2015-06-04T12:00:00Z,30.6671,-87.9365,1.238,4.65,1111122 
DISL,ioos:station:DISL:MHPA:1,2015-06-04T12:30:00Z,30.6671,-87.9365,1.25,6.04,1111122 
DISL,ioos:station:DISL:MHPA:1,2015-06-04T13:00:00Z,30.6671,-87.9365,1.269,5.32,1111122 
DISL,ioos:station:DISL:MHPA:1,2015-06-04T13:30:00Z,30.6671,-87.9365,1.293,4.97,1111122 
DISL,ioos:station:DISL:MHPA:1,2015-06-04T14:00:00Z,30.6671,-87.9365,1.318,4.84,1111122 
DISL,ioos:station:DISL:MHPA:1,2015-06-04T14:30:00Z,30.6671,-87.9365,1.358,5.65,1111122 
DISL,ioos:station:DISL:MHPA:1,2015-06-04T15:00:00Z,30.6671,-87.9365,1.403,5.35,1111122 
DISL,ioos:station:DISL:MHPA:1,2015-06-04T15:30:00Z,30.6671,-87.9365,1.439,5.46,1111122 
DISL,ioos:station:DISL:MHPA:1,2015-06-04T16:00:00Z,30.6671,-87.9365,1.472,6.2,1111122 
DISL,ioos:station:DISL:MHPA:1,2015-06-04T16:30:00Z,30.6671,-87.9365,1.502,6.19,1111122 
DISL,ioos:station:DISL:MHPA:1,2015-06-04T17:00:00Z,30.6671,-87.9365,1.531,6.07,1111122 
DISL,ioos:station:DISL:MHPA:1,2015-06-04T17:30:00Z,30.6671,-87.9365,1.54,5.76,1111122 
DISL,ioos:station:DISL:MHPA:1,2015-06-04T18:00:00Z,30.6671,-87.9365,1.542,6.23,1111122 
DISL,ioos:station:DISL:MHPA:1,2015-06-04T18:30:00Z,30.6671,-87.9365,1.531,5.66,1111122 
DISL,ioos:station:DISL:MHPA:1,2015-06-04T19:00:00Z,30.6671,-87.9365,1.513,5.39,1111122 
DISL,ioos:station:DISL:MHPA:1,2015-06-04T19:30:00Z,30.6671,-87.9365,1.496,4.83,1111122 
DISL,ioos:station:DISL:MHPA:1,2015-06-04T20:00:00Z,30.6671,-87.9365,1.471,5.28,1111122 
DISL,ioos:station:DISL:MHPA:1,2015-06-04T20:30:00Z,30.6671,-87.9365,1.441,6.05,1111122 
DISL,ioos:station:DISL:MHPA:1,2015-06-04T21:00:00Z,30.6671,-87.9365,1.404,6.36,1111122 
DISL,ioos:station:DISL:MHPA:1,2015-06-04T21:30:00Z,30.6671,-87.9365,1.369,6.08,1111122 
DISL,ioos:station:DISL:MHPA:1,2015-06-04T22:00:00Z,30.6671,-87.9365,1.334,5.67,1111122 
DISL,ioos:station:DISL:MHPA:1,2015-06-04T22:30:00Z,30.6671,-87.9365,1.29,6.12,1111122 
DISL,ioos:station:DISL:MHPA:1,2015-06-04T23:00:00Z,30.6671,-87.9365,1.249,6.06,1111122 
DISL,ioos:station:DISL:MHPA:1,2015-06-04T23:30:00Z,30.6671,-87.9365,1.209,5.64,1111122 
DISL,ioos:station:DISL:MHPA:1,2015-06-05T00:00:00Z,30.6671,-87.9365,1.166,6.35,1111122 
DISL,ioos:station:DISL:MHPA:1,2015-06-05T00:30:00Z,30.6671,-87.9365,1.125,5.64,1111122 
DISL,ioos:station:DISL:MHPA:1,2015-06-05T01:00:00Z,30.6671,-87.9365,1.086,6.2,1111122 
DISL,ioos:station:DISL:MHPA:1,2015-06-05T01:30:00Z,30.6671,-87.9365,1.047,5.98,1111122 
DISL,ioos:station:DISL:MHPA:1,2015-06-05T02:00:00Z,30.6671,-87.9365,1.008,5.67,1111122 
DISL,ioos:station:DISL:MHPA:1,2015-06-05T02:30:00Z,30.6671,-87.9365,0.975,5.38,1111122 
DISL,ioos:station:DISL:MHPA:1,2015-06-05T03:00:00Z,30.6671,-87.9365,0.95,5.7,1111122 
DISL,ioos:station:DISL:MHPA:1,2015-06-05T03:30:00Z,30.6671,-87.9365,0.916,5.74,1111122 
DISL,ioos:station:DISL:MHPA:1,2015-06-05T04:00:00Z,30.6671,-87.9365,0.89,5.74,1111122 
DISL,ioos:station:DISL:MHPA:1,2015-06-05T04:30:00Z,30.6671,-87.9365,0.866,5.92,1111122 
DISL,ioos:station:DISL:MHPA:1,2015-06-05T05:00:00Z,30.6671,-87.9365,0.849,6.25,1111122 
DISL,ioos:station:DISL:MHPA:1,2015-06-05T05:30:00Z,30.6671,-87.9365,0.835,5.7,1111122 
DISL,ioos:station:DISL:MHPA:1,2015-06-05T06:00:00Z,30.6671,-87.9365,0.834,5.58,1111122 
DISL,ioos:station:DISL:MHPA:1,2015-06-05T06:30:00Z,30.6671,-87.9365,0.839,5.59,1111122 
DISL,ioos:station:DISL:MHPA:1,2015-06-05T07:00:00Z,30.6671,-87.9365,0.855,6.16,1111122 
DISL,ioos:station:DISL:MHPA:1,2015-06-05T07:30:00Z,30.6671,-87.9365,0.872,6.39,1111122 
DISL,ioos:station:DISL:MHPA:1,2015-06-05T08:00:00Z,30.6671,-87.9365,0.886,6.32,1111122 
DISL,ioos:station:DISL:MHPA:1,2015-06-05T08:30:00Z,30.6671,-87.9365,0.915,6.09,1111122 
DISL,ioos:station:DISL:MHPA:1,2015-06-05T09:00:00Z,30.6671,-87.9365,0.944,6.27,1111122 
DISL,ioos:station:DISL:MHPA:1,2015-06-05T09:30:00Z,30.6671,-87.9365,0.981,6.32,1111122 
DISL,ioos:station:DISL:MHPA:1,2015-06-05T10:00:00Z,30.6671,-87.9365,1.044,6.08,1111122 
DISL,ioos:station:DISL:MHPA:1,2015-06-05T10:30:00Z,30.6671,-87.9365,1.086,5.55,1111122 
DISL,ioos:station:DISL:MHPA:1,2015-06-05T11:00:00Z,30.6671,-87.9365,1.123,3.89,1111122 
DISL,ioos:station:DISL:MHPA:1,2015-06-05T11:30:00Z,30.6671,-87.9365,1.169,4.39,1111122 
DISL,ioos:station:DISL:MHPA:1,2015-06-05T12:00:00Z,30.6671,-87.9365,1.195,4.77,1111122 
DISL,ioos:station:DISL:MHPA:1,2015-06-05T12:30:00Z,30.6671,-87.9365,1.216,4.88,1111122 
DISL,ioos:station:DISL:MHPA:1,2015-06-05T13:00:00Z,30.6671,-87.9365,1.222,4.45,1111122 
DISL,ioos:station:DISL:MHPA:1,2015-06-05T13:30:00Z,30.6671,-87.9365,1.232,3.36,1111122 
DISL,ioos:station:DISL:MHPA:1,2015-06-05T14:00:00Z,30.6671,-87.9365,1.249,3.39,1111122 
DISL,ioos:station:DISL:MHPA:1,2015-06-05T14:30:00Z,30.6671,-87.9365,1.266,3.55,1111122 
DISL,ioos:station:DISL:MHPA:1,2015-06-05T15:00:00Z,30.6671,-87.9365,1.284,5.04,1111122 
DISL,ioos:station:DISL:MHPA:1,2015-06-05T15:30:00Z,30.6671,-87.9365,1.303,5.66,1111122 
DISL,ioos:station:DISL:MHPA:1,2015-06-05T16:00:00Z,30.6671,-87.9365,1.331,5.71,1111122 
DISL,ioos:station:DISL:MHPA:1,2015-06-05T16:30:00Z,30.6671,-87.9365,1.351,5.76,1111122 
DISL,ioos:station:DISL:MHPA:1,2015-06-05T17:00:00Z,30.6671,-87.9365,1.368,5.9,1111122 
DISL,ioos:station:DISL:MHPA:1,2015-06-05T17:30:00Z,30.6671,-87.9365,1.39,5.56,1111122 
DISL,ioos:station:DISL:MHPA:1,2015-06-05T18:00:00Z,30.6671,-87.9365,1.402,5.28,1111122 
DISL,ioos:station:DISL:MHPA:1,2015-06-05T18:30:00Z,30.6671,-87.9365,1.411,5.56,1111122 
DISL,ioos:station:DISL:MHPA:1,2015-06-05T19:00:00Z,30.6671,-87.9365,1.418,5.51,1111122 
DISL,ioos:station:DISL:MHPA:1,2015-06-05T19:30:00Z,30.6671,-87.9365,1.42,5.49,1111122 
DISL,ioos:station:DISL:MHPA:1,2015-06-05T20:00:00Z,30.6671,-87.9365,1.416,5.24,1111122 
DISL,ioos:station:DISL:MHPA:1,2015-06-05T20:30:00Z,30.6671,-87.9365,1.401,5.5,1111122 
DISL,ioos:station:DISL:MHPA:1,2015-06-05T21:00:00Z,30.6671,-87.9365,1.372,5.3,1111122 
DISL,ioos:station:DISL:MHPA:1,2015-06-05T21:30:00Z,30.6671,-87.9365,1.349,5.37,1111122 
DISL,ioos:station:DISL:MHPA:1,2015-06-05T22:00:00Z,30.6671,-87.9365,1.321,5.55,1111122 
DISL,ioos:station:DISL:MHPA:1,2015-06-05T22:30:00Z,30.6671,-87.9365,1.287,5.81,1111122 
DISL,ioos:station:DISL:MHPA:1,2015-06-05T23:00:00Z,30.6671,-87.9365,1.245,5.51,1111122 
DISL,ioos:station:DISL:MHPA:1,2015-06-05T23:30:00Z,30.6671,-87.9365,1.202,5.96,1111122 
DISL,ioos:station:DISL:MHPA:1,2015-06-06T00:00:00Z,30.6671,-87.9365,1.161,6.34,1111122 
DISL,ioos:station:DISL:MHPA:1,2015-06-06T00:30:00Z,30.6671,-87.9365,1.122,6.17,1111122 
DISL,ioos:station:DISL:MHPA:1,2015-06-06T01:00:00Z,30.6671,-87.9365,1.084,6.03,1111122 
DISL,ioos:station:DISL:MHPA:1,2015-06-06T01:30:00Z,30.6671,-87.9365,1.047,6.41,1111122 
DISL,ioos:station:DISL:MHPA:1,2015-06-06T02:00:00Z,30.6671,-87.9365,1.014,6.03,1111122 
DISL,ioos:station:DISL:MHPA:1,2015-06-06T02:30:00Z,30.6671,-87.9365,0.985,5.45,1111122 
DISL,ioos:station:DISL:MHPA:1,2015-06-06T03:00:00Z,30.6671,-87.9365,0.958,5.48,1111122 
DISL,ioos:station:DISL:MHPA:1,2015-06-06T03:30:00Z,30.6671,-87.9365,0.933,5.31,1111122 
DISL,ioos:station:DISL:MHPA:1,2015-06-06T04:00:00Z,30.6671,-87.9365,0.91,5.51,1111122 
DISL,ioos:station:DISL:MHPA:1,2015-06-06T04:30:00Z,30.6671,-87.9365,0.889,5.6,1111122 
DISL,ioos:station:DISL:MHPA:1,2015-06-06T05:00:00Z,30.6671,-87.9365,0.868,5.68,1111122 
DISL,ioos:station:DISL:MHPA:1,2015-06-06T05:30:00Z,30.6671,-87.9365,0.847,5.76,1111122 
DISL,ioos:station:DISL:MHPA:1,2015-06-06T06:00:00Z,30.6671,-87.9365,0.832,5.46,1111122 
DISL,ioos:station:DISL:MHPA:1,2015-06-06T06:30:00Z,30.6671,-87.9365,0.82,5.26,1111122 
DISL,ioos:station:DISL:MHPA:1,2015-06-06T07:00:00Z,30.6671,-87.9365,0.812,4.64,1111122 
DISL,ioos:station:DISL:MHPA:1,2015-06-06T07:30:00Z,30.6671,-87.9365,0.809,4.54,1111122 
DISL,ioos:station:DISL:MHPA:1,2015-06-06T08:00:00Z,30.6671,-87.9365,0.819,4.36,1111122 
DISL,ioos:station:DISL:MHPA:1,2015-06-06T08:30:00Z,30.6671,-87.9365,0.835,4.53,1111122 
DISL,ioos:station:DISL:MHPA:1,2015-06-06T09:00:00Z,30.6671,-87.9365,0.853,4.34,1111122 
DISL,ioos:station:DISL:MHPA:1,2015-06-06T09:30:00Z,30.6671,-87.9365,0.879,4.87,1111122 
DISL,ioos:station:DISL:MHPA:1,2015-06-06T10:00:00Z,30.6671,-87.9365,0.915,5.67,1111122 
DISL,ioos:station:DISL:MHPA:1,2015-06-06T10:30:00Z,30.6671,-87.9365,0.942,5.94,1111122 
DISL,ioos:station:DISL:MHPA:1,2015-06-06T11:00:00Z,30.6671,-87.9365,0.976,5.22,1111122 
DISL,ioos:station:DISL:MHPA:1,2015-06-06T11:30:00Z,30.6671,-87.9365,1.015,5.55,1111122 
DISL,ioos:station:DISL:MHPA:1,2015-06-06T12:00:00Z,30.6671,-87.9365,1.047,4.84,1111122 
DISL,ioos:station:DISL:MHPA:1,2015-06-06T12:30:00Z,30.6671,-87.9365,1.071,4.17,1111122 
DISL,ioos:station:DISL:MHPA:1,2015-06-06T13:00:00Z,30.6671,-87.9365,1.099,4.25,1111122 
DISL,ioos:station:DISL:MHPA:1,2015-06-06T13:30:00Z,30.6671,-87.9365,1.129,3.45,1111122 
DISL,ioos:station:DISL:MHPA:1,2015-06-06T14:00:00Z,30.6671,-87.9365,1.153,3.8,1111122 
DISL,ioos:station:DISL:MHPA:1,2015-06-06T14:30:00Z,30.6671,-87.9365,1.18,4.38,1111122 
DISL,ioos:station:DISL:MHPA:1,2015-06-06T15:00:00Z,30.6671,-87.9365,1.211,5.02,1111122 
DISL,ioos:station:DISL:MHPA:1,2015-06-06T15:30:00Z,30.6671,-87.9365,1.24,5.33,1111122 